Weather History for Omak, WA

Change the Weather History Date:

Thursday, November 13, 2014

  Actual Average Record
Temperature  
Mean Temperature 24 °F 37 °F  
Max Temperature 34 °F 45 °F 58 °F (1996)
Min Temperature 13 °F 29 °F 0 °F (1955)
Degree Days  
Heating Degree Days 41 28  
Month to date heating degree days 314 333  
Since 1 July heating degree days 774 993  
Cooling Degree Days 0 0  
Month to date cooling degree days 0 0  
Year to date cooling degree days 873 665  
Moisture  
Dew Point 10 °F    
Average Humidity 54    
Maximum Humidity 67    
Minimum Humidity 41    
Precipitation  
Precipitation 0.00 in 0.06 in 0.44 in (1945)
Month to date precipitation 0.33 0.80  
Year to date precipitation 9.38 11.50  
Sea Level Pressure  
Sea Level Pressure 30.24 in    
Wind  
Wind Speed 11 mph (NNW)    
Max Wind Speed 18 mph    
Max Gust Speed 23 mph    
Visibility 10 miles    
Events      
T = Trace of Precipitation, MM = Missing Value Source: NWS Daily Summary

Daily Weather History Graph

Daily Weather History Graph

Search for Another Location

Airport:

Trip Planner

Search our weather history database for the weather conditions in past years. The results will help you decide how hot, cold, wet, or windy it might be!

Date:

Astronomy

Nov. 13, 2014 Rise Set
Actual Time 7:02 AM PST 4:21 PM PST
Civil Twilight 6:28 AM PST 4:55 PM PST
Nautical Twilight 5:50 AM PST 5:33 PM PST
Astronomical Twilight 5:14 AM PST 6:09 PM PST
Moon 10:50 PM PST (11/13) 12:19 PM PST (11/13)
Length of Visible Light 10h 26m
Length of Day
9h 18m
Waning Gibbous, 58% of the Moon is Illuminated
Nov 13
Waning Gibbous
Nov 14
Last Quarter
Nov 22
New
Nov 29
First Quarter
Dec 6
Full

Hourly Weather History & Observations

Time (PST) Temp. Windchill Dew Point Humidity Pressure Visibility Wind Dir Wind Speed Gust Speed Precip Events Conditions
12:53 AM 18.0 °F 6.9 °F 6.1 °F 60% 30.40 in 10.0 mi NNW 9.2 mph - N/A   Clear
1:53 AM 17.1 °F 7.6 °F 6.1 °F 62% 30.39 in 10.0 mi North 6.9 mph - N/A   Clear
2:53 AM 18.0 °F 6.9 °F 6.1 °F 60% 30.37 in 10.0 mi NNW 9.2 mph - N/A   Clear
3:53 AM 17.1 °F 5.0 °F 6.1 °F 62% 30.35 in 10.0 mi North 10.4 mph - N/A   Clear
4:53 AM 16.0 °F 4.4 °F 7.0 °F 68% 30.35 in 10.0 mi NNW 9.2 mph - N/A   Clear
5:53 AM 16.0 °F 2.9 °F 7.0 °F 68% 30.33 in 10.0 mi North 11.5 mph - N/A   Clear
6:53 AM 17.1 °F 3.6 °F 8.1 °F 68% 30.32 in 10.0 mi North 12.7 mph - N/A   Clear
7:53 AM 18.0 °F 6.1 °F 8.1 °F 65% 30.32 in 10.0 mi North 10.4 mph - N/A   Clear
8:53 AM 21.0 °F 9.3 °F 9.0 °F 60% 30.30 in 10.0 mi NNW 11.5 mph - N/A   Clear
9:53 AM 25.0 °F 13.1 °F 10.9 °F 55% 30.28 in 10.0 mi NNW 13.8 mph - N/A   Clear
10:53 AM 28.9 °F 18.2 °F 12.9 °F 51% 30.25 in 10.0 mi North 13.8 mph - N/A   Clear
11:53 AM 30.9 °F 21.2 °F 14.0 °F 50% 30.21 in 10.0 mi North 12.7 mph 20.7 mph N/A   Clear
12:53 PM 33.1 °F 23.4 °F 12.9 °F 43% 30.18 in 10.0 mi NNE 13.8 mph - N/A   Clear
1:53 PM 34.0 °F 25.5 °F 12.0 °F 40% 30.16 in 10.0 mi North 11.5 mph - N/A   Clear
2:53 PM 34.0 °F 25.5 °F 12.0 °F 40% 30.14 in 10.0 mi NNW 11.5 mph - N/A   Clear
3:53 PM 30.9 °F 22.2 °F 10.9 °F 43% 30.14 in 10.0 mi NNW 10.4 mph - N/A   Clear
4:53 PM 28.0 °F 18.6 °F 10.9 °F 49% 30.14 in 10.0 mi NW 10.4 mph - N/A   Clear
5:53 PM 25.0 °F 16.3 °F 10.9 °F 55% 30.14 in 10.0 mi NNW 8.1 mph - N/A   Clear
6:53 PM 25.0 °F 15.5 °F 10.9 °F 55% 30.15 in 10.0 mi NW 9.2 mph - N/A   Clear
7:53 PM 24.1 °F 13.7 °F 12.0 °F 60% 30.15 in 10.0 mi NNW 10.4 mph - N/A   Clear
8:53 PM 24.1 °F 13.7 °F 12.9 °F 62% 30.15 in 10.0 mi NW 10.4 mph - N/A   Clear
9:53 PM 21.0 °F 9.9 °F 10.9 °F 65% 30.16 in 10.0 mi North 10.4 mph - N/A   Clear
10:53 PM 19.9 °F 10.1 °F 10.9 °F 68% 30.16 in 10.0 mi NNW 8.1 mph - N/A   Clear
11:53 PM 19.0 °F 8.2 °F 10.9 °F 71% 30.16 in 10.0 mi NNW 9.2 mph - N/A   Clear